DESEF EDLW-EDDG

Flight info

Callsign DESEF
Flight time 0h 22m
Altitude
Route
Aircraft AQ20

Departure

Time 2026-05-06 18:15
Airport Dortmund Airport (EDLW)

Arrival

Time 2026-05-06 18:37
Airport Münster Osnabrück Airport (EDDG)
Time Latitude Longitude Altitude Speed Heading
2026-05-06 18:05 51.51175 7.60301 451 ft 9 kts 234°
2026-05-06 18:05 51.51163 7.60168 449 ft 15 kts 297°
2026-05-06 18:06 51.51226 7.60240 447 ft 14 kts 65°
2026-05-06 18:06 51.51285 7.60419 443 ft 21 kts 60°
2026-05-06 18:06 51.51365 7.60637 439 ft 24 kts 62°
2026-05-06 18:06 51.51453 7.60888 433 ft 27 kts 61°
2026-05-06 18:07 51.51538 7.61054 426 ft 14 kts
2026-05-06 18:07 51.51556 7.60926 425 ft 14 kts 258°
2026-05-06 18:07 51.51538 7.60791 426 ft 0 kts 256°
2026-05-06 18:13 51.51536 7.60780 426 ft 6 kts 253°
2026-05-06 18:13 51.51532 7.60651 426 ft 14 kts 298°
2026-05-06 18:14 51.51632 7.60662 416 ft 20 kts 51°
2026-05-06 18:14 51.51674 7.60754 414 ft 0 kts 40°
2026-05-06 18:14 51.51716 7.60873 412 ft 41 kts 62°
2026-05-06 18:14 51.51937 7.61470 455 ft 73 kts 60°
2026-05-06 18:15 51.52167 7.62181 670 ft 68 kts 68°
2026-05-06 18:15 51.52327 7.62891 872 ft 72 kts 72°
2026-05-06 18:15 51.52626 7.63494 1126 ft 70 kts 28°
2026-05-06 18:15 51.53121 7.63661 1314 ft 77 kts
2026-05-06 18:16 51.53695 7.63709 1486 ft 84 kts 358°
2026-05-06 18:16 51.54276 7.63677 1721 ft 81 kts 360°
2026-05-06 18:16 51.54901 7.63601 1797 ft 97 kts 353°
2026-05-06 18:16 51.55555 7.63474 1987 ft 95 kts 353°
2026-05-06 18:17 51.56252 7.63362 2079 ft 101 kts 353°
2026-05-06 18:17 51.56978 7.63221 2101 ft 110 kts 352°
2026-05-06 18:17 51.57753 7.63048 2111 ft 115 kts 352°
2026-05-06 18:17 51.58550 7.62838 2126 ft 116 kts 349°
2026-05-06 18:18 51.59358 7.62642 2166 ft 115 kts 352°
2026-05-06 18:18 51.60118 7.62423 2292 ft 110 kts 347°
2026-05-06 18:18 51.60870 7.62111 2353 ft 111 kts 340°
2026-05-06 18:18 51.61607 7.61705 2351 ft 117 kts 339°
2026-05-06 18:19 51.62402 7.61234 2289 ft 123 kts 340°
2026-05-06 18:19 51.63221 7.60994 2298 ft 120 kts
2026-05-06 18:19 51.64024 7.61117 2398 ft 113 kts
2026-05-06 18:19 51.64829 7.61387 2340 ft 121 kts 14°
2026-05-06 18:20 51.65639 7.61699 2401 ft 116 kts 14°
2026-05-06 18:20 51.66436 7.62045 2327 ft 124 kts 15°
2026-05-06 18:20 51.67277 7.62229 2402 ft 115 kts
2026-05-06 18:20 51.68086 7.62303 2421 ft 117 kts
2026-05-06 18:21 51.68884 7.62421 2487 ft 115 kts
2026-05-06 18:21 51.69676 7.62438 2510 ft 118 kts
2026-05-06 18:21 51.70488 7.62463 2604 ft 112 kts 356°
2026-05-06 18:21 51.71298 7.62382 2515 ft 124 kts 359°
2026-05-06 18:22 51.72171 7.62504 2383 ft 128 kts
2026-05-06 18:22 51.73080 7.62710 2145 ft 137 kts
2026-05-06 18:22 51.74054 7.62856 1831 ft 142 kts
2026-05-06 18:22 51.75052 7.62903 1580 ft 138 kts
2026-05-06 18:23 51.75982 7.63023 1561 ft 128 kts
2026-05-06 18:23 51.76837 7.63173 1587 ft 123 kts
2026-05-06 18:23 51.77656 7.63444 1628 ft 118 kts 14°
2026-05-06 18:23 51.78443 7.63678 1690 ft 117 kts
2026-05-06 18:24 51.79250 7.63755 1768 ft 115 kts 358°
2026-05-06 18:24 51.80013 7.63548 1888 ft 111 kts 341°
2026-05-06 18:24 51.80746 7.63082 1890 ft 117 kts 335°
2026-05-06 18:24 51.81482 7.62483 1853 ft 122 kts 328°
2026-05-06 18:25 51.82206 7.61769 1868 ft 119 kts 333°
2026-05-06 18:25 51.82967 7.61486 2024 ft 110 kts 355°
2026-05-06 18:25 51.83739 7.61322 2071 ft 106 kts 344°
2026-05-06 18:25 51.84439 7.60966 2121 ft 106 kts 341°
2026-05-06 18:26 51.85135 7.60677 2222 ft 101 kts 347°
2026-05-06 18:26 51.85827 7.60435 2277 ft 100 kts 344°
2026-05-06 18:26 51.86500 7.60079 2293 ft 103 kts 342°
2026-05-06 18:26 51.87191 7.59787 2338 ft 102 kts 343°
2026-05-06 18:27 51.87892 7.59450 2301 ft 107 kts 342°
2026-05-06 18:27 51.88603 7.59007 2254 ft 111 kts 337°
2026-05-06 18:27 51.89316 7.58528 2209 ft 112 kts 339°
2026-05-06 18:27 51.90044 7.58158 2263 ft 105 kts 343°
2026-05-06 18:28 51.90756 7.57856 2280 ft 105 kts 342°
2026-05-06 18:28 51.91472 7.57518 2265 ft 107 kts 340°
2026-05-06 18:28 51.92201 7.57142 2156 ft 115 kts 344°
2026-05-06 18:28 51.93008 7.57039 2040 ft 118 kts 11°
2026-05-06 18:29 51.93700 7.57630 2071 ft 108 kts 41°
2026-05-06 18:29 51.94221 7.58411 2194 ft 97 kts 44°
2026-05-06 18:29 51.94755 7.59089 2256 ft 99 kts 40°
2026-05-06 18:29 51.95348 7.59673 2274 ft 102 kts 26°
2026-05-06 18:30 51.95986 7.60147 2339 ft 101 kts 22°
2026-05-06 18:30 51.96652 7.60552 2344 ft 105 kts 22°
2026-05-06 18:30 51.97326 7.61061 2311 ft 108 kts 32°
2026-05-06 18:30 51.97912 7.61799 2349 ft 103 kts 42°
2026-05-06 18:31 51.98445 7.62676 2265 ft 110 kts 48°
2026-05-06 18:31 51.98974 7.63578 2217 ft 112 kts 50°
2026-05-06 18:31 51.99494 7.64514 2204 ft 110 kts 47°
2026-05-06 18:31 52.00073 7.65320 2175 ft 112 kts 40°
2026-05-06 18:32 52.00693 7.66096 2150 ft 112 kts 36°
2026-05-06 18:32 52.01362 7.66754 2153 ft 110 kts 30°
2026-05-06 18:32 52.02049 7.67277 2176 ft 108 kts 23°
2026-05-06 18:32 52.02744 7.67715 2205 ft 106 kts 21°
2026-05-06 18:33 52.03429 7.68127 2219 ft 107 kts 20°
2026-05-06 18:33 52.04150 7.68488 2233 ft 107 kts 15°
2026-05-06 18:33 52.04898 7.68513 2180 ft 114 kts 351°
2026-05-06 18:33 52.05685 7.68180 1954 ft 124 kts 342°
2026-05-06 18:34 52.06504 7.67762 1657 ft 126 kts 340°
2026-05-06 18:34 52.07326 7.67254 1367 ft 124 kts 336°
2026-05-06 18:34 52.08089 7.66754 1239 ft 114 kts 336°
2026-05-06 18:34 52.08798 7.66214 1120 ft 110 kts 333°
2026-05-06 18:35 52.09449 7.65722 1044 ft 92 kts 335°
2026-05-06 18:35 52.09998 7.65386 920 ft 80 kts 341°
2026-05-06 18:35 52.10522 7.65156 858 ft 77 kts 345°
2026-05-06 18:35 52.11064 7.64989 808 ft 80 kts 351°
2026-05-06 18:36 52.11613 7.64908 787 ft 80 kts 357°
2026-05-06 18:36 52.12208 7.64874 670 ft 87 kts 359°
2026-05-06 18:36 52.12743 7.65152 629 ft 73 kts 44°
2026-05-06 18:36 52.12928 7.65900 454 ft 76 kts 81°
2026-05-06 18:37 52.13083 7.66706 259 ft 71 kts 76°
2026-05-06 18:37 52.13242 7.67385 157 ft 53 kts 70°
2026-05-06 18:37 52.13329 7.67845 154 ft 38 kts 71°
2026-05-06 18:37 52.13393 7.68139 154 ft 24 kts 66°
2026-05-06 18:38 52.13467 7.68176 154 ft 7 kts 326°
2026-05-06 18:38 52.13476 7.68166 154 ft 0 kts 323°
2026-05-06 18:39 52.13492 7.68148 154 ft 12 kts 325°
2026-05-06 18:39 52.13585 7.68037 156 ft 17 kts 324°
2026-05-06 18:40 52.13631 7.67875 156 ft 0 kts